Regional Weather Roundup
Issued by NWS

Home | Current Version | Previous Version | Text Only | Print | Product List | Glossary Off
Versions: 1 2 3 4 5 6 7 8 9 10 11 12 13 14 15 16 17 18 19 20 21 22 23 24 25 26 27 28 29 30 31 32 33 34 35 36 37 38 39 40 41 42 43 44 45 46 47 48 49 50

000
ASUS44 KMEG 171700
RWRTN
TENNESSEE HOURLY STATE WEATHER ROUNDUP
NATIONAL WEATHER SERVICE MEMPHIS TN
1100 AM CST WED DEC 17 2014

TNZ002-004-019-021-049-052-054-088>092-171800-
WEST TENNESSEE

CITY           SKY/WX    TMP DP  RH WIND       PRES   REMARKS
MEMPHIS INTL   CLOUDY    40  34  76 MISG        N/A
NWS MEMPHIS      N/A     40 N/A N/A MISG        N/A
JACKSON        CLOUDY    38  30  73 VRB3      30.32F
DYERSBURG      PTSUNNY   37  19  48 CALM      30.35F
UNION CITY     SUNNY     36  28  75 CALM      30.31F
PARIS            N/A     36  27  69 VRB3      30.31F
LEXINGTON      CLOUDY    37  28  70 CALM      30.30F
SAVANNAH       PTSUNNY   43  32  65 N5        30.31F
$$

TNZ008-025-027-028-033-062-065-066-171800-
NORTH MIDDLE TENNESSEE

CITY           SKY/WX    TMP DP  RH WIND       PRES   REMARKS
NASHVILLE      CLOUDY    37  31  78 NE7       30.32F WCI  32
CLARKSVILLE    PTSUNNY   36  27  69 NE6       30.31F WCI  31
CROSSVILLE     CLOUDY    38  32  79 CALM      30.23F
$$

TNZ061-075-076-078-094-096-097-171800-
SOUTH MIDDLE TENNESSEE

CITY           SKY/WX    TMP DP  RH WIND       PRES   REMARKS
TULLAHOMA      CLOUDY    36  32  87 N6        30.27F WCI  31
WINCHESTER     CLOUDY    37  34  87 N7        30.27F WCI  32
SHELBYVILLE    CLOUDY    39  34  81 N3        30.29F
$$

TNZ017-018-042-046-047-171800-
NORTHEAST TENNESSEE

CITY           SKY/WX    TMP DP  RH WIND       PRES   REMARKS
TRI CITIES     CLOUDY    44  36  73 W8        30.19F
ELIZABETHTON   CLOUDY    43  34  70 W8        30.18F
$$

TNZ012-013-036-069-073-074-171800-
CENTRAL EAST TENNESSEE

CITY           SKY/WX    TMP DP  RH WIND       PRES   REMARKS
KNOXVILLE      CLOUDY    44  36  73 CALM      30.23F
OAK RIDGE      CLOUDY    45  36  70 W3        30.24F
GATLINBURG     CLOUDY    43  34  70 CALM      30.22F
$$

TNZ083-085-099-171800-
SOUTHEAST TENNESSEE

CITY           SKY/WX    TMP DP  RH WIND       PRES   REMARKS
CHATTANOOGA    CLOUDY    45  35  68 N8        30.26F
$$

SKY/WX REPORTED AS FAIR MEANS FEW OR NO CLOUDS BELOW
12 THOUSAND FEET.



USA.gov is the U.S. government's official web portal to all federal, state and local government web resources and services.